Total_Precipitation_Accumulation
1.35 1.35 1.34 1.26 1.22 1.20 1.23 1.38 1.59 1.55 1.26 1.02 0.99 1.02 1.07 1.10 1.18 1.08 0.94 1.12 1.18 1.17 1.23 1.27 1.29 1.28 1.28 1.32 1.43 1.55 1.66 1.73 1.82 1.96 2.09 2.20 2.41 2.75
1.14 1.18 1.21 1.20 1.22 1.25 1.30 1.38 1.52 1.69 1.57 1.18 1.04 1.04 1.09 1.10 1.18 1.04 0.95 1.11 1.07 1.06 1.08 1.10 1.08 1.06 1.08 1.12 1.19 1.29 1.39 1.46 1.54 1.69 1.89 2.07 2.25 2.43
1.11 1.07 1.04 1.07 1.16 1.22 1.31 1.39 1.48 1.60 1.62 1.30 1.07 1.01 1.03 1.00 0.97 0.88 0.85 0.86 0.85 0.97 0.94 0.92 0.94 0.95 0.95 0.98 1.04 1.11 1.19 1.29 1.40 1.53 1.69 1.86 2.01 2.13
1.16 1.16 1.11 1.11 1.17 1.24 1.32 1.37 1.39 1.41 1.43 1.30 1.07 0.95 0.90 0.83 0.80 0.75 0.71 0.71 0.71 0.86 0.85 0.83 0.85 0.85 0.82 0.84 0.90 0.97 1.03 1.12 1.21 1.30 1.39 1.49 1.63 1.81
1.21 1.23 1.20 1.21 1.23 1.20 1.18 1.19 1.18 1.15 1.14 1.11 0.97 0.86 0.82 0.78 0.77 0.71 0.65 0.63 0.61 0.70 0.73 0.73 0.80 0.85 0.81 0.81 0.85 0.89 0.89 0.87 0.91 0.95 1.06 1.18 1.33 1.47
1.31 1.29 1.26 1.24 1.19 1.15 1.10 1.05 1.02 1.03 1.02 1.03 0.98 0.87 0.80 0.76 0.78 0.75 0.68 0.61 0.58 0.56 0.64 0.66 0.74 0.83 0.84 0.77 0.71 0.69 0.68 0.73 0.80 0.87 0.94 1.01 1.09 1.19
1.40 1.34 1.25 1.26 1.22 1.14 1.07 1.03 1.04 1.08 1.10 1.13 1.07 0.92 0.77 0.70 0.67 0.64 0.66 0.65 0.61 0.56 0.59 0.60 0.62 0.62 0.64 0.70 0.72 0.71 0.72 0.76 0.84 0.93 0.99 1.04 1.09 1.15
1.32 1.26 1.19 1.18 1.12 1.12 1.10 1.07 1.11 1.18 1.25 1.26 1.14 0.93 0.69 0.60 0.60 0.69 0.78 0.87 0.78 0.55 0.57 0.57 0.56 0.58 0.56 0.58 0.73 0.78 0.79 0.79 0.80 0.86 0.92 0.95 0.99 1.05
1.11 1.04 1.00 0.95 0.95 0.84 0.91 1.00 1.02 1.10 1.12 1.04 0.94 0.75 0.65 0.62 0.76 0.89 0.87 0.86 0.72 0.56 0.65 0.70 0.63 0.61 0.57 0.62 0.75 0.73 0.74 0.77 0.79 0.83 0.84 0.86 0.89 0.94
0.89 0.84 0.81 0.79 0.79 0.81 0.82 0.87 0.80 0.77 0.76 0.71 0.69 0.67 0.69 0.73 0.88 1.03 1.01 0.94 0.76 0.65 0.69 0.79 0.66 0.62 0.58 0.62 0.72 0.71 0.75 0.80 0.83 0.86 0.87 0.88 0.89 0.92
0.68 0.69 0.70 0.66 0.81 0.96 0.94 0.89 0.74 0.64 0.68 0.72 0.78 0.81 0.85 0.85 0.86 1.00 1.11 1.18 1.03 0.75 0.65 0.70 0.64 0.59 0.59 0.59 0.65 0.74 0.73 0.73 0.74 0.75 0.78 0.83 0.86 0.94
0.62 0.63 0.74 0.74 0.88 1.01 0.92 0.90 0.80 0.66 0.66 0.69 0.67 0.65 0.63 0.66 0.76 0.81 1.06 1.41 1.26 0.96 0.66 0.77 0.80 0.85 1.01 0.68 0.60 0.63 0.65 0.69 0.73 0.76 0.78 0.78 0.84 0.86
0.59 0.59 0.62 0.80 0.91 0.97 0.92 0.78 0.83 0.88 0.80 0.75 0.73 0.68 0.63 0.62 0.63 0.64 0.81 1.33 1.62 1.25 0.73 1.11 1.31 1.03 1.16 0.86 0.62 0.60 0.60 0.69 0.75 0.78 0.85 0.91 0.96 1.04
0.57 0.52 0.57 0.77 0.84 0.85 0.80 0.81 0.92 0.89 0.73 0.76 0.78 0.73 0.70 0.68 0.67 0.68 0.73 0.86 1.10 1.21 0.94 1.29 1.76 1.36 1.43 1.15 0.73 0.60 0.58 0.69 0.88 0.94 0.96 1.10 1.19 1.24
0.63 0.64 0.64 0.67 0.65 0.67 0.73 0.77 0.76 0.70 0.70 0.75 0.75 0.68 0.63 0.65 0.68 0.71 0.73 0.73 0.74 0.77 0.83 0.98 1.34 1.36 1.50 1.42 0.99 0.70 0.70 0.71 0.85 1.03 1.13 1.23 1.31 1.34
0.76 0.76 0.71 0.65 0.62 0.61 0.65 0.64 0.61 0.62 0.71 0.77 0.73 0.67 0.65 0.66 0.68 0.71 0.79 0.80 0.84 0.74 0.67 0.71 0.85 1.16 1.30 1.04 1.07 0.96 0.87 0.95 0.92 1.04 1.21 1.29 1.40 1.53
0.87 0.79 0.76 0.71 0.67 0.63 0.61 0.59 0.60 0.66 0.69 0.68 0.74 0.76 0.72 0.69 0.68 0.69 0.80 0.88 0.95 0.80 0.69 0.62 0.63 0.73 0.89 1.00 1.05 0.89 0.88 0.98 1.10 1.23 1.39 1.38 1.36 1.55
0.93 0.79 0.71 0.65 0.61 0.57 0.57 0.57 0.58 0.62 0.66 0.74 0.79 0.81 0.83 0.82 0.79 0.73 0.80 0.90 0.90 0.76 0.73 0.70 0.72 0.82 0.82 0.79 0.83 0.91 0.94 1.05 1.11 1.16 1.34 1.51 1.43 1.37
0.84 0.73 0.66 0.61 0.59 0.58 0.58 0.59 0.59 0.57 0.66 0.78 0.84 0.84 0.86 0.84 0.83 0.82 0.82 0.86 0.83 0.74 0.71 0.74 0.87 1.21 1.25 0.84 0.61 0.81 1.16 1.25 1.16 1.16 1.26 1.46 1.63 1.46
0.72 0.66 0.62 0.62 0.65 0.68 0.71 0.73 0.73 0.70 0.72 0.76 0.79 0.80 0.85 0.89 0.86 0.81 0.80 0.87 0.90 0.80 0.72 0.66 0.75 1.17 1.62 1.39 1.08 0.90 0.97 1.27 1.47 1.55 1.39 1.28 1.38 1.34
0.64 0.63 0.63 0.67 0.74 0.80 0.83 0.85 0.88 0.89 0.86 0.86 0.83 0.82 0.86 0.96 0.89 0.76 0.78 0.82 0.90 0.87 0.80 0.63 0.57 0.77 1.16 1.41 1.23 0.85 0.88 0.97 1.30 1.80 1.80 1.61 1.40 1.21
0.66 0.68 0.70 0.74 0.82 0.90 0.92 0.93 0.93 0.88 0.90 0.91 0.86 0.85 0.87 0.97 0.96 0.85 0.84 0.87 0.84 0.81 0.75 0.63 0.58 0.69 0.97 1.28 1.08 0.77 0.75 0.76 0.81 0.93 1.39 2.00 2.53 2.50
0.74 0.76 0.78 0.83 0.87 0.90 0.91 0.90 0.89 0.84 0.85 0.92 0.94 0.91 0.93 0.95 0.90 0.91 0.89 0.89 0.90 0.84 0.79 0.75 0.67 0.68 0.75 0.86 0.95 0.81 0.69 0.66 0.67 0.74 1.02 1.30 1.61 1.86